CZ-6A DEB, 54587

Orbit data source: Space-Track

CZ-6A DEB, 54587 is space debris in SSO originally from a launch on Fri, 11 Nov 2022 UTC launched from the Taiyaun Space Center, China (TSC). Debris objects in space refer to the collection of defunct objects orbiting the Earth. Examples of debris include non-operational satellites, rocket bodies, and fragments generated from explosions, collisions, or faulty payload assembly.

Loading next visibility...
Identifier
54587, 2022-151MP
Orbit
SSO
Country
Flag of CNCN / PRC
Related business
Manufacturer
SAST
Mission
Spacecraft
Bus & Motor
Unknown
Mass
Unknown
Launch date (UTC)
2022-11-11 (3 years ago)
Launch vehicle
Unknown
Launch site
Taiyaun Space Center, China (TSC)
Object type
Payload
Rocket body
Debris
Shape & HBR
Unknown shape, 0.2 m
Radar Cross Section
Small (<0.1 m²)

Expand to show TLE details & history
Last TLE update: 10 hours ago

TLE from 10 hours ago
0 CZ-6A DEB
1 54587U 22151MP  25353.90893111  .00000243  00000-0  19220-3 0  9996
2 54587  98.8553 325.3796 0116578 206.9125 152.5962 13.97310786157599
Epoch: 2025-12-19T21:48Z
TLE epoch observation values (Epoch: 2025-12-19T21:48:51.647Z)
Latitude
-0.00001°
Longitude
-90.57892°
Altitude
981.58 km
Speed
7.323 km/s
True Right ascension
21h 41m 31s
True Declination
0° 00' 00"
Sunlit
Object was in daylight at epoch
Visualization orbit readout
Latitude
Unknown
Longitude
Unknown
Altitude
Unknown
Speed
Unknown
Apparent Right ascension
Unknown
Apparent Declination
Unknown
Sunlit
N/A
Visualization observer readout
Local Sidereal Time
06:42:48
Azimuth
Unknown
Elevation
Unknown
Doppler factor
Unknown
Orbital elements
Apogee altitude
985.169 km
Perigee altitude
815.467 km
Semi-major axis
7,278.455 km
Eccentricity
0.01166
Inclination
98.8553°
RAAN
325.3796°
Arg. of periapsis
206.9125°
True anomaly
153.20318°
Mean anomaly
152.5962°
Eccentric anomaly
152.90047°
Mean motion
3.4953 °/min
Orbital period
103 mins
BSTAR
0.0001922
Loading maneuver chart data...
Computing Atmospheric mass density...
Loading historical data...
Loading historical data...
Loading historical data...
Loading historical data...
Loading historical data...
Loading historical data...
Loading historical data...

Documentation

Showing up to 5 results
|